• In Österreich
  • Länderverzeichnis
  • Für 7 Tage
  • Wassertemperatur
  • Satellitenkarten
  • Wetterkarte
  • News
  • Widgets
  • user-avatar
    Anmelden

    Stündliche Wetter Szczypiornia

    Heute, 19 September, Mittwoch

    Zeit Temperatur Niederschläge Wind Luftdruck Luftfeuchtigkeit
    00:00 +18°C° 0 mm 3 m/S 751 mmHg 74%
    01:00 +18°C° 0 mm 3 m/S 751 mmHg 77%
    02:00 +17°C° 0 mm 3 m/S 751 mmHg 78%
    03:00 +17°C° 0 mm 3 m/S 751 mmHg 80%
    04:00 +17°C° 0 mm 3 m/S 751 mmHg 81%
    05:00 +17°C° 0 mm 3 m/S 751 mmHg 79%
    06:00 +18°C° 0 mm 3 m/S 751 mmHg 76%
    07:00 +18°C° 0 mm 3 m/S 751 mmHg 72%
    08:00 +20°C° 0 mm 3 m/S 751 mmHg 67%
    09:00 +22°C° 0 mm 3 m/S 752 mmHg 61%
    10:00 +25°C° 0 mm 3 m/S 752 mmHg 55%
    11:00 +26°C° 0 mm 3 m/S 752 mmHg 52%
    12:00 +28°C° 0 mm 3 m/S 752 mmHg 48%
    13:00 +29°C° 0 mm 4 m/S 752 mmHg 45%
    14:00 +29°C° 0 mm 3 m/S 752 mmHg 46%
    15:00 +29°C° 0 mm 3 m/S 752 mmHg 47%
    16:00 +29°C° 0 mm 2 m/S 752 mmHg 48%
    17:00 +27°C° 0 mm 2 m/S 752 mmHg 53%
    18:00 +25°C° 0 mm 2 m/S 752 mmHg 58%
    19:00 +23°C° 0 mm 2 m/S 752 mmHg 63%
    20:00 +21°C° 0 mm 2 m/S 752 mmHg 65%
    21:00 +22°C° 0 mm 1 m/S 752 mmHg 67%
    22:00 +21°C° 0 mm 1 m/S 752 mmHg 69%
    23:00 +21°C° 0 mm 1 m/S 752 mmHg 70%

    Morgen, 20 September, Donnerstag

    Zeit Temperatur Niederschläge Wind Luftdruck Luftfeuchtigkeit
    00:00 +20°C° 0 mm 1 m/S 752 mmHg 70%
    01:00 +20°C° 0 mm 1 m/S 752 mmHg 71%
    02:00 +20°C° 0 mm 1 m/S 752 mmHg 71%
    03:00 +20°C° 0 mm 1 m/S 752 mmHg 71%
    04:00 +18°C° 0 mm 2 m/S 752 mmHg 72%
    05:00 +19°C° 0 mm 2 m/S 752 mmHg 71%
    06:00 +19°C° 0 mm 2 m/S 752 mmHg 71%
    07:00 +20°C° 0 mm 2 m/S 752 mmHg 70%
    08:00 +22°C° 0 mm 3 m/S 753 mmHg 65%
    09:00 +25°C° 0 mm 3 m/S 753 mmHg 59%
    10:00 +27°C° 0 mm 3 m/S 753 mmHg 53%
    11:00 +28°C° 0 mm 4 m/S 753 mmHg 50%
    12:00 +29°C° 0 mm 4 m/S 752 mmHg 47%
    13:00 +30°C° 0 mm 4 m/S 752 mmHg 43%
    14:00 +30°C° 0 mm 3 m/S 752 mmHg 45%
    15:00 +29°C° 0 mm 3 m/S 752 mmHg 46%
    16:00 +29°C° 0 mm 3 m/S 752 mmHg 48%
    17:00 +27°C° 0 mm 2 m/S 752 mmHg 52%
    18:00 +25°C° 0 mm 2 m/S 752 mmHg 57%
    19:00 +24°C° 0 mm 2 m/S 752 mmHg 61%
    20:00 +23°C° 0 mm 2 m/S 752 mmHg 63%
    21:00 +21°C° 0 mm 2 m/S 752 mmHg 65%
    22:00 +21°C° 0 mm 2 m/S 752 mmHg 67%
    23:00 +20°C° 0 mm 2 m/S 751 mmHg 68%

    übermorgen, 21 September, Freitag

    Zeit Temperatur Niederschläge Wind Luftdruck Luftfeuchtigkeit
    00:00 +20°C° 0 mm 2 m/S 751 mmHg 69%
    01:00 +20°C° 0 mm 2 m/S 751 mmHg 71%
    02:00 +19°C° 0 mm 2 m/S 751 mmHg 71%
    03:00 +19°C° 0 mm 3 m/S 751 mmHg 72%
    04:00 +19°C° 0 mm 3 m/S 750 mmHg 73%
    05:00 +19°C° 0 mm 3 m/S 750 mmHg 70%
    06:00 +19°C° 0 mm 3 m/S 750 mmHg 67%
    07:00 +20°C° 0 mm 4 m/S 750 mmHg 64%
    08:00 +21°C° 0 mm 5 m/S 750 mmHg 57%
    09:00 +23°C° 0 mm 5 m/S 749 mmHg 51%
    10:00 +26°C° 0 mm 6 m/S 749 mmHg 45%
    11:00 +27°C° 0 mm 6 m/S 748 mmHg 43%
    12:00 +28°C° 0 mm 7 m/S 748 mmHg 41%
    13:00 +29°C° 0 mm 7 m/S 747 mmHg 39%
    14:00 +28°C° 0 mm 6 m/S 746 mmHg 40%
    15:00 +28°C° 0 mm 6 m/S 746 mmHg 41%
    16:00 +28°C° 0 mm 5 m/S 745 mmHg 43%
    17:00 +26°C° 0 mm 5 m/S 745 mmHg 45%
    18:00 +25°C° 0 mm 5 m/S 745 mmHg 47%
    19:00 +23°C° 0 mm 5 m/S 744 mmHg 49%
    20:00 +23°C° 0.1 mm 6 m/S 745 mmHg 53%
    21:00 +22°C° 0.1 mm 6 m/S 745 mmHg 57%
    22:00 +22°C° 0.1 mm 6 m/S 745 mmHg 60%
    23:00 +20°C° 0.5 mm 6 m/S 746 mmHg 65%

    22 September, Samstag

    Zeit Temperatur Niederschläge Wind Luftdruck Luftfeuchtigkeit
    00:00 +17°C° 0.5 mm 6 m/S 747 mmHg 70%
    01:00 +15°C° 0.5 mm 6 m/S 747 mmHg 75%
    02:00 +15°C° 0 mm 5 m/S 748 mmHg 73%
    03:00 +14°C° 0 mm 5 m/S 749 mmHg 71%
    04:00 +13°C° 0 mm 4 m/S 749 mmHg 69%
    05:00 +13°C° 0 mm 4 m/S 750 mmHg 69%
    06:00 +13°C° 0 mm 4 m/S 750 mmHg 68%
    07:00 +13°C° 0 mm 5 m/S 750 mmHg 68%
    08:00 +13°C° 0 mm 5 m/S 750 mmHg 65%
    09:00 +13°C° 0 mm 5 m/S 751 mmHg 61%
    10:00 +14°C° 0 mm 6 m/S 751 mmHg 58%
    11:00 +14°C° 0 mm 6 m/S 751 mmHg 55%
    12:00 +15°C° 0 mm 6 m/S 751 mmHg 53%
    13:00 +15°C° 0 mm 6 m/S 750 mmHg 51%
    14:00 +15°C° 0.1 mm 6 m/S 750 mmHg 50%
    15:00 +15°C° 0.1 mm 5 m/S 750 mmHg 49%
    16:00 +15°C° 0.1 mm 5 m/S 750 mmHg 49%
    17:00 +14°C° 0.1 mm 4 m/S 750 mmHg 52%
    18:00 +13°C° 0.1 mm 4 m/S 750 mmHg 55%
    19:00 +12°C° 0.1 mm 3 m/S 750 mmHg 58%
    20:00 +12°C° 0 mm 3 m/S 750 mmHg 61%
    21:00 +11°C° 0 mm 3 m/S 750 mmHg 64%
    22:00 +10°C° 0 mm 3 m/S 750 mmHg 67%
    23:00 +10°C° 0 mm 3 m/S 750 mmHg 68%

    23 September, Sonntag

    Zeit Temperatur Niederschläge Wind Luftdruck Luftfeuchtigkeit
    00:00 +10°C° 0 mm 3 m/S 751 mmHg 69%
    01:00 +8°C° 0 mm 4 m/S 751 mmHg 71%
    02:00 +8°C° 0 mm 4 m/S 751 mmHg 72%
    03:00 +8°C° 0 mm 4 m/S 751 mmHg 72%
    04:00 +7°C° 0 mm 4 m/S 751 mmHg 73%
    05:00 +8°C° 0 mm 4 m/S 751 mmHg 72%
    06:00 +8°C° 0 mm 5 m/S 751 mmHg 71%
    07:00 +8°C° 0 mm 5 m/S 751 mmHg 70%
    08:00 +10°C° 0 mm 5 m/S 751 mmHg 63%
    09:00 +12°C° 0 mm 5 m/S 751 mmHg 56%
    10:00 +14°C° 0 mm 6 m/S 751 mmHg 48%
    11:00 +14°C° 0 mm 5 m/S 751 mmHg 45%
    12:00 +15°C° 0 mm 5 m/S 750 mmHg 42%
    13:00 +17°C° 0 mm 4 m/S 750 mmHg 39%
    14:00 +17°C° 0 mm 4 m/S 749 mmHg 40%
    15:00 +17°C° 0 mm 3 m/S 749 mmHg 42%
    16:00 +17°C° 0 mm 3 m/S 748 mmHg 43%
    17:00 +16°C° 0 mm 3 m/S 748 mmHg 46%
    18:00 +14°C° 0 mm 3 m/S 747 mmHg 48%
    19:00 +13°C° 0 mm 3 m/S 746 mmHg 51%
    20:00 +13°C° 0.2 mm 4 m/S 745 mmHg 54%
    21:00 +13°C° 0.2 mm 5 m/S 744 mmHg 57%
    22:00 +13°C° 0.2 mm 6 m/S 744 mmHg 60%
    23:00 +11°C° 1.1 mm 6 m/S 743 mmHg 65%

    24 September, Montag

    Zeit Temperatur Niederschläge Wind Luftdruck Luftfeuchtigkeit
    00:00 +11°C° 1.1 mm 6 m/S 742 mmHg 70%
    01:00 +11°C° 1.1 mm 6 m/S 741 mmHg 75%
    02:00 +11°C° 2.1 mm 6 m/S 740 mmHg 80%
    03:00 +10°C° 2.1 mm 6 m/S 740 mmHg 84%
    04:00 +10°C° 2.1 mm 6 m/S 739 mmHg 88%
    05:00 +10°C° 1.6 mm 6 m/S 738 mmHg 88%
    06:00 +11°C° 1.6 mm 6 m/S 738 mmHg 89%
    07:00 +11°C° 1.6 mm 6 m/S 737 mmHg 89%
    08:00 +11°C° 0.2 mm 6 m/S 738 mmHg 87%
    09:00 +11°C° 0.2 mm 6 m/S 738 mmHg 84%
    10:00 +13°C° 0.2 mm 6 m/S 738 mmHg 82%
    11:00 +13°C° 0.1 mm 6 m/S 738 mmHg 79%
    12:00 +13°C° 0.1 mm 6 m/S 738 mmHg 76%
    13:00 +13°C° 0.1 mm 6 m/S 738 mmHg 73%
    14:00 +14°C° 0 mm 6 m/S 738 mmHg 72%
    15:00 +14°C° 0 mm 6 m/S 738 mmHg 71%
    16:00 +14°C° 0 mm 6 m/S 738 mmHg 70%
    17:00 +13°C° 0.1 mm 6 m/S 738 mmHg 72%
    18:00 +13°C° 0.1 mm 6 m/S 738 mmHg 75%
    19:00 +11°C° 0.1 mm 6 m/S 738 mmHg 77%
    20:00 +11°C° 0.1 mm 6 m/S 738 mmHg 77%
    21:00 +10°C° 0.1 mm 7 m/S 739 mmHg 77%
    22:00 +9°C° 0.1 mm 7 m/S 739 mmHg 76%
    23:00 +9°C° 0 mm 7 m/S 739 mmHg 76%
    Mehr zeigen